| time (UTC) | temp F | wind direction | speed knots | gust knots | rain 1hr in | rain 24hr in | rain mn in | humidity % | barometer mb |
| 20260905195458 | 63 | 252 | 8.7 | 11.3 | 0.00 | 0.00 | 0.02 | 59 | 1018.1 |
| 20260905194958 | 63 | 288 | 7.0 | 13.0 | 0.00 | 0.00 | 0.02 | 59 | 1018.1 |
| 20260905194458 | 63 | 279 | 7.8 | 13.0 | 0.00 | 0.00 | 0.02 | 59 | 1017.9 |
| 20260905193958 | 63 | 261 | 3.5 | 11.3 | 0.00 | 0.00 | 0.02 | 60 | 1017.8 |
| 20260905193458 | 63 | 269 | 6.1 | 9.6 | 0.00 | 0.00 | 0.02 | 60 | 1018.0 |
| 20260905192958 | 63 | 302 | 5.2 | 14.8 | 0.00 | 0.00 | 0.02 | 60 | 1017.9 |
| 20260905192458 | 63 | 285 | 10.4 | 13.0 | 0.00 | 0.00 | 0.02 | 60 | 1018.0 |
| 20260905191958 | 63 | 278 | 7.0 | 13.0 | 0.00 | 0.00 | 0.02 | 60 | 1017.9 |
| 20260905191458 | 63 | 292 | 4.3 | 11.3 | 0.00 | 0.00 | 0.02 | 60 | 1018.0 |
| 20260905190958 | 63 | 284 | 7.8 | 13.0 | 0.00 | 0.00 | 0.02 | 60 | 1017.7 |
| 20260905190458 | 63 | 267 | 5.2 | 11.3 | 0.00 | 0.00 | 0.02 | 61 | 1017.9 |
| 20260905185958 | 63 | 283 | 8.7 | 11.3 | 0.00 | 0.00 | 0.02 | 61 | 1017.8 |
| 20260905185458 | 63 | 242 | 7.8 | 11.3 | 0.00 | 0.00 | 0.02 | 61 | 1017.7 |
| 20260905184959 | 63 | 250 | 7.8 | 11.3 | 0.00 | 0.00 | 0.02 | 61 | 1017.8 |
| 20260905184458 | 63 | 264 | 11.3 | 13.0 | 0.00 | 0.00 | 0.02 | 61 | 1017.7 |
| 20260905183958 | 63 | 289 | 7.0 | 11.3 | 0.00 | 0.00 | 0.02 | 61 | 1017.4 |
| 20260905183458 | 63 | 258 | 5.2 | 9.6 | 0.00 | 0.00 | 0.02 | 60 | 1017.4 |
| 20260905182958 | 63 | 278 | 7.0 | 9.6 | 0.00 | 0.00 | 0.02 | 60 | 1017.3 |
| 20260905182458 | 63 | 287 | 8.7 | 13.0 | 0.00 | 0.00 | 0.02 | 60 | 1017.4 |
| 20260905181958 | 63 | 251 | 4.3 | 9.6 | 0.00 | 0.00 | 0.02 | 60 | 1017.3 |
| 20260905181458 | 63 | 265 | 5.2 | 6.1 | 0.00 | 0.00 | 0.02 | 60 | 1017.5 |
| 20260905180958 | 63 | 288 | 4.3 | 7.8 | 0.00 | 0.00 | 0.02 | 60 | 1017.4 |
| 20260905180458 | 63 | 282 | 2.6 | 6.1 | 0.00 | 0.00 | 0.02 | 60 | 1017.4 |
| 20260905175958 | 63 | 251 | 4.3 | 9.6 | 0.00 | 0.00 | 0.02 | 60 | 1017.1 |
| 20260905175458 | 64 | 255 | 3.5 | 7.8 | 0.00 | 0.00 | 0.02 | 60 | 1017.2 |
| 20260905174958 | 64 | 269 | 3.5 | 7.8 | 0.00 | 0.00 | 0.02 | 59 | 1017.2 |
| 20260905174458 | 64 | 279 | 1.7 | 6.1 | 0.00 | 0.00 | 0.02 | 59 | 1017.1 |
| 20260905173958 | 64 | 287 | 4.3 | 7.8 | 0.00 | 0.00 | 0.02 | 58 | 1017.1 |
| 20260905173458 | 64 | 234 | 4.3 | 9.6 | 0.00 | 0.00 | 0.02 | 58 | 1017.1 |
| 20260905172958 | 64 | 289 | 7.0 | 13.0 | 0.00 | 0.00 | 0.02 | 57 | 1017.1 |
| 20260905172458 | 64 | 270 | 4.3 | 6.1 | 0.00 | 0.00 | 0.02 | 58 | 1017.0 |
| 20260905171958 | 64 | 273 | 3.5 | 9.6 | 0.00 | 0.00 | 0.02 | 57 | 1017.1 |
| 20260905171458 | 64 | 268 | 7.0 | 14.8 | 0.00 | 0.00 | 0.02 | 56 | 1017.2 |
| 20260905170958 | 64 | 282 | 9.6 | 11.3 | 0.00 | 0.00 | 0.02 | 56 | 1016.8 |
| 20260905170458 | 64 | 268 | 6.1 | 6.1 | 0.00 | 0.00 | 0.02 | 56 | 1016.8 |
| 20260905165958 | 64 | 256 | 7.8 | 13.0 | 0.00 | 0.00 | 0.02 | 55 | 1016.8 |
| 20260905165458 | 66 | 254 | 8.7 | 11.3 | 0.00 | 0.00 | 0.02 | 55 | 1016.8 |
| 20260905164958 | 64 | 257 | 8.7 | 14.8 | 0.00 | 0.00 | 0.02 | 56 | 1016.8 |
| 20260905164458 | 64 | 282 | 7.0 | 7.8 | 0.00 | 0.00 | 0.02 | 56 | 1016.6 |
| 20260905163958 | 66 | 270 | 7.8 | 14.8 | 0.00 | 0.00 | 0.02 | 55 | 1016.7 |
| 20260905163458 | 66 | 273 | 3.5 | 7.8 | 0.00 | 0.00 | 0.02 | 55 | 1016.4 |
| 20260905162958 | 66 | 266 | 6.1 | 11.3 | 0.00 | 0.00 | 0.02 | 54 | 1016.3 |
| 20260905162458 | 66 | 264 | 7.8 | 15.6 | 0.00 | 0.00 | 0.02 | 54 | 1016.4 |
| 20260905161958 | 66 | 266 | 7.0 | 11.3 | 0.00 | 0.00 | 0.02 | 54 | 1016.2 |
| 20260905161458 | 66 | 250 | 10.4 | 15.6 | 0.00 | 0.00 | 0.02 | 54 | 1016.4 |
| 20260905160958 | 66 | 272 | 7.0 | 7.8 | 0.00 | 0.00 | 0.02 | 54 | 1016.2 |
| 20260905160458 | 66 | 284 | 5.2 | 13.0 | 0.00 | 0.00 | 0.02 | 53 | 1016.1 |
| 20260905155958 | 66 | 282 | 5.2 | 13.0 | 0.00 | 0.00 | 0.02 | 53 | 1016.2 |
| 20260905155458 | 66 | 323 | 10.4 | 20.9 | 0.00 | 0.00 | 0.02 | 53 | 1016.2 |
| 20260905154957 | 66 | 259 | 4.3 | 9.6 | 0.00 | 0.00 | 0.02 | 54 | 1016.1 |
| 20260905154458 | 68 | 264 | 8.7 | 13.0 | 0.00 | 0.00 | 0.02 | 53 | 1016.1 |
| 20260905153958 | 68 | 280 | 6.1 | 13.0 | 0.00 | 0.00 | 0.02 | 52 | 1016.0 |
| 20260905153458 | 68 | 277 | 9.6 | 17.4 | 0.00 | 0.00 | 0.02 | 51 | 1016.0 |
| 20260905152958 | 70 | 300 | 9.6 | 15.6 | 0.00 | 0.00 | 0.02 | 51 | 1015.7 |
| 20260905152458 | 70 | 293 | 11.3 | 15.6 | 0.00 | 0.00 | 0.02 | 49 | 1015.7 |
| 20260905151958 | 68 | 265 | 12.2 | 15.6 | 0.00 | 0.00 | 0.02 | 51 | 1015.7 |
| 20260905151458 | 68 | 240 | 10.4 | 17.4 | 0.00 | 0.00 | 0.02 | 51 | 1015.8 |
| 20260905150958 | 68 | 300 | 6.1 | 14.8 | 0.00 | 0.00 | 0.02 | 51 | 1015.7 |
| 20260905150458 | 70 | 285 | 12.2 | 22.6 | 0.00 | 0.00 | 0.02 | 50 | 1015.5 |
| 20260905145958 | 70 | 258 | 7.8 | 19.1 | 0.00 | 0.00 | 0.02 | 50 | 1015.8 |
| 20260905145458 | 70 | 277 | 16.5 | 22.6 | 0.00 | 0.00 | 0.02 | 48 | 1015.7 |
| 20260905144958 | 70 | 270 | 5.2 | 13.0 | 0.00 | 0.00 | 0.02 | 50 | 1015.6 |
| 20260905144458 | 70 | 291 | 11.3 | 20.9 | 0.00 | 0.00 | 0.02 | 50 | 1015.7 |
| 20260905143958 | 70 | 263 | 13.0 | 20.9 | 0.00 | 0.00 | 0.02 | 50 | 1015.5 |
| 20260905143458 | 70 | 293 | 15.6 | 26.1 | 0.00 | 0.00 | 0.02 | 50 | 1015.4 |
| 20260905142958 | 70 | 286 | 8.7 | 14.8 | 0.00 | 0.00 | 0.02 | 51 | 1015.5 |
| 20260905142458 | 70 | 291 | 14.8 | 17.4 | 0.00 | 0.00 | 0.02 | 51 | 1015.5 |
| 20260905141958 | 70 | 238 | 13.9 | 19.1 | 0.00 | 0.00 | 0.02 | 51 | 1015.4 |
| 20260905141458 | 70 | 273 | 13.0 | 20.9 | 0.00 | 0.00 | 0.02 | 52 | 1015.7 |
| 20260905140958 | 70 | 273 | 13.0 | 22.6 | 0.00 | 0.00 | 0.02 | 51 | 1015.8 |
| 20260905140458 | 70 | 264 | 8.7 | 15.6 | 0.00 | 0.00 | 0.02 | 51 | 1015.7 |
| 20260905135958 | 68 | 301 | 13.0 | 20.9 | 0.00 | 0.00 | 0.02 | 52 | 1015.8 |
| 20260905135458 | 68 | 260 | 13.0 | 17.4 | 0.00 | 0.00 | 0.02 | 52 | 1015.8 |
| 20260905134958 | 70 | 274 | 10.4 | 20.9 | 0.00 | 0.00 | 0.02 | 50 | 1015.9 |
| 20260905134458 | 68 | 260 | 8.7 | 17.4 | 0.00 | 0.00 | 0.02 | 52 | 1015.7 |
| 20260905133958 | 68 | 271 | 11.3 | 17.4 | 0.00 | 0.00 | 0.02 | 52 | 1015.8 |
| 20260905133458 | 68 | 275 | 4.3 | 17.4 | 0.00 | 0.00 | 0.02 | 51 | 1015.7 |
| 20260905132958 | 68 | 281 | 16.5 | 22.6 | 0.00 | 0.00 | 0.02 | 51 | 1015.8 |
| 20260905132458 | 68 | 277 | 10.4 | 17.4 | 0.00 | 0.00 | 0.02 | 51 | 1015.6 |
| 20260905131958 | 68 | 299 | 9.6 | 20.9 | 0.00 | 0.00 | 0.02 | 51 | 1015.7 |
| 20260905131458 | 68 | 274 | 14.8 | 22.6 | 0.00 | 0.00 | 0.02 | 49 | 1015.8 |
| 20260905130958 | 68 | 259 | 8.7 | 17.4 | 0.00 | 0.00 | 0.02 | 49 | 1015.8 |
| 20260905130458 | 68 | 286 | 10.4 | 17.4 | 0.00 | 0.00 | 0.02 | 51 | 1015.7 |
| 20260905125958 | 68 | 293 | 13.0 | 22.6 | 0.00 | 0.00 | 0.02 | 49 | 1015.8 |
| 20260905125458 | 68 | 288 | 13.0 | 22.6 | 0.00 | 0.00 | 0.02 | 49 | 1015.7 |
| 20260905124958 | 68 | 265 | 19.1 | 28.7 | 0.00 | 0.00 | 0.02 | 47 | 1015.9 |
| 20260905124458 | 70 | 270 | 20.9 | 26.9 | 0.00 | 0.00 | 0.02 | 46 | 1015.6 |
| 20260905123958 | 70 | 280 | 11.3 | 19.1 | 0.00 | 0.00 | 0.02 | 48 | 1015.4 |
| 20260905123458 | 70 | 241 | 11.3 | 28.7 | 0.00 | 0.00 | 0.02 | 46 | 1015.5 |
| 20260905122958 | 70 | 346 | 10.4 | 32.2 | 0.00 | 0.00 | 0.02 | 46 | 1015.7 |
| 20260905122458 | 70 | 271 | 13.0 | 19.1 | 0.00 | 0.00 | 0.02 | 46 | 1015.6 |
| 20260905121958 | 70 | 298 | 14.8 | 24.3 | 0.00 | 0.00 | 0.02 | 47 | 1015.7 |
| 20260905121458 | 70 | 269 | 7.8 | 28.7 | 0.00 | 0.00 | 0.02 | 47 | 1015.6 |
| 20260905120958 | 68 | 286 | 11.3 | 24.3 | 0.00 | 0.00 | 0.02 | 47 | 1015.7 |
| 20260905120458 | 68 | 283 | 18.2 | 26.9 | 0.00 | 0.00 | 0.02 | 47 | 1015.4 |
| 20260905115958 | 68 | 280 | 21.7 | 26.9 | 0.00 | 0.00 | 0.02 | 46 | 1015.7 |
| 20260905115458 | 70 | 298 | 16.5 | 28.7 | 0.00 | 0.00 | 0.02 | 48 | 1015.5 |
| 20260905114958 | 70 | 274 | 16.5 | 26.9 | 0.00 | 0.00 | 0.02 | 48 | 1015.6 |
| 20260905114458 | 70 | 266 | 9.6 | 15.6 | 0.00 | 0.00 | 0.02 | 51 | 1015.3 |
| 20260905113958 | 68 | 296 | 7.8 | 19.1 | 0.00 | 0.00 | 0.02 | 52 | 1015.5 |
| 20260905113458 | 66 | 280 | 8.7 | 17.4 | 0.00 | 0.00 | 0.02 | 54 | 1015.6 |
| 20260905112958 | 66 | 290 | 7.0 | 26.9 | 0.00 | 0.00 | 0.02 | 55 | 1015.6 |
| 20260905112458 | 66 | 257 | 13.0 | 19.1 | 0.00 | 0.00 | 0.02 | 53 | 1015.4 |
| 20260905111958 | 68 | 293 | 11.3 | 17.4 | 0.00 | 0.00 | 0.02 | 53 | 1015.6 |
| 20260905111458 | 68 | 266 | 16.5 | 20.9 | 0.00 | 0.00 | 0.02 | 51 | 1015.5 |
| 20260905110958 | 66 | 286 | 5.2 | 15.6 | 0.00 | 0.00 | 0.02 | 56 | 1015.5 |
| 20260905110458 | 66 | 299 | 8.7 | 19.1 | 0.00 | 0.00 | 0.02 | 58 | 1015.5 |
| 20260905105958 | 66 | 321 | 17.4 | 20.9 | 0.00 | 0.00 | 0.02 | 56 | 1015.4 |
| 20260905105458 | 68 | 296 | 5.2 | 17.4 | 0.00 | 0.00 | 0.02 | 58 | 1015.5 |
| 20260905104958 | 68 | 305 | 12.2 | 20.9 | 0.00 | 0.00 | 0.02 | 59 | 1015.5 |
| 20260905104458 | 66 | 44 | 13.0 | 19.1 | 0.00 | 0.00 | 0.02 | 60 | 1015.3 |
| 20260905103958 | 66 | 318 | 12.2 | 24.3 | 0.00 | 0.00 | 0.02 | 60 | 1015.3 |
| 20260905103458 | 66 | 270 | 10.4 | 22.6 | 0.00 | 0.00 | 0.02 | 61 | 1015.6 |
| 20260905102958 | 64 | 280 | 7.8 | 22.6 | 0.00 | 0.00 | 0.02 | 63 | 1015.5 |
| 20260905102458 | 66 | 266 | 12.2 | 20.9 | 0.00 | 0.00 | 0.02 | 63 | 1015.3 |
| 20260905101958 | 64 | 291 | 7.8 | 15.6 | 0.00 | 0.00 | 0.02 | 64 | 1015.6 |
| 20260905101458 | 64 | 280 | 12.2 | 17.4 | 0.00 | 0.00 | 0.02 | 66 | 1015.6 |
| 20260905100958 | 64 | 279 | 10.4 | 24.3 | 0.00 | 0.00 | 0.02 | 65 | 1015.7 |
| 20260905100458 | 64 | 286 | 18.2 | 24.3 | 0.00 | 0.00 | 0.02 | 64 | 1015.4 |
| 20260905095957 | 66 | 288 | 16.5 | 26.1 | 0.00 | 0.00 | 0.02 | 62 | 1015.2 |
| 20260905095458 | 64 | 201 | 4.3 | 15.6 | 0.00 | 0.00 | 0.02 | 67 | 1015.3 |
| 20260905094958 | 64 | 254 | 13.9 | 19.1 | 0.00 | 0.00 | 0.02 | 67 | 1015.3 |
| 20260905094458 | 64 | 268 | 7.0 | 11.3 | 0.00 | 0.00 | 0.02 | 67 | 1015.0 |
| 20260905093958 | 64 | 242 | 7.0 | 17.4 | 0.00 | 0.00 | 0.02 | 68 | 1015.3 |
| 20260905093458 | 63 | 280 | 4.3 | 9.6 | 0.00 | 0.00 | 0.02 | 71 | 1015.6 |
| 20260905092958 | 63 | 305 | 12.2 | 17.4 | 0.00 | 0.00 | 0.02 | 69 | 1015.3 |
| 20260905092458 | 63 | 271 | 12.2 | 19.1 | 0.00 | 0.00 | 0.02 | 69 | 1015.6 |
| 20260905091958 | 64 | 211 | 16.5 | 26.1 | 0.00 | 0.00 | 0.02 | 68 | 1015.5 |
| 20260905091458 | 64 | 297 | 16.5 | 26.9 | 0.00 | 0.00 | 0.02 | 68 | 1015.3 |
| 20260905090958 | 63 | 258 | 13.0 | 19.1 | 0.00 | 0.00 | 0.02 | 70 | 1015.3 |
| 20260905090457 | 63 | 277 | 8.7 | 13.0 | 0.00 | 0.00 | 0.02 | 71 | 1015.4 |
| 20260905085958 | 64 | 282 | 13.0 | 20.9 | 0.00 | 0.00 | 0.02 | 70 | 1015.3 |
| 20260905085458 | 64 | 286 | 7.0 | 11.3 | 0.00 | 0.00 | 0.02 | 71 | 1015.3 |
| 20260905084957 | 63 | 275 | 9.6 | 15.6 | 0.00 | 0.00 | 0.02 | 71 | 1015.2 |
| 20260905084457 | 63 | 257 | 9.6 | 24.3 | 0.00 | 0.00 | 0.02 | 72 | 1015.2 |
| 20260905083958 | 63 | 286 | 8.7 | 14.8 | 0.00 | 0.00 | 0.02 | 73 | 1015.3 |
| 20260905083458 | 63 | 261 | 9.6 | 15.6 | 0.00 | 0.00 | 0.02 | 73 | 1015.4 |
| 20260905082958 | 63 | 243 | 17.4 | 24.3 | 0.00 | 0.00 | 0.02 | 72 | 1015.5 |
| 20260905082457 | 63 | 252 | 12.2 | 24.3 | 0.00 | 0.00 | 0.02 | 73 | 1015.6 |
| 20260905081957 | 63 | 212 | 6.1 | 15.6 | 0.00 | 0.00 | 0.02 | 75 | 1015.6 |
| 20260905081457 | 63 | 269 | 9.6 | 15.6 | 0.00 | 0.00 | 0.02 | 76 | 1015.7 |
| 20260905080958 | 61 | 277 | 17.4 | 20.9 | 0.00 | 0.00 | 0.02 | 75 | 1015.6 |
| 20260905080458 | 61 | 205 | 4.3 | 14.8 | 0.00 | 0.00 | 0.02 | 77 | 1015.6 |
| 20260905075958 | 61 | 295 | 7.8 | 9.6 | 0.00 | 0.00 | 0.02 | 79 | 1015.5 |
| 20260905075458 | 59 | 267 | 7.0 | 9.6 | 0.00 | 0.00 | 0.02 | 80 | 1015.5 |
| 20260905074957 | 59 | 258 | 13.0 | 15.6 | 0.00 | 0.00 | 0.02 | 80 | 1015.6 |
| 20260905074457 | 59 | 259 | 8.7 | 14.8 | 0.00 | 0.00 | 0.02 | 80 | 1015.5 |
| 20260905073958 | 59 | 254 | 3.5 | 9.6 | 0.00 | 0.00 | 0.02 | 82 | 1015.3 |
| 20260905073458 | 59 | 265 | 3.5 | 7.8 | 0.00 | 0.00 | 0.02 | 82 | 1015.4 |
| 20260905072958 | 59 | 255 | 7.8 | 9.6 | 0.00 | 0.00 | 0.02 | 83 | 1015.5 |
| 20260905072458 | 59 | 243 | 3.5 | 6.1 | 0.00 | 0.00 | 0.02 | 83 | 1015.4 |
| 20260905071957 | 59 | 276 | 11.3 | 15.6 | 0.00 | 0.00 | 0.02 | 83 | 1015.5 |
| 20260905071457 | 59 | 273 | 5.2 | 9.6 | 0.00 | 0.00 | 0.02 | 83 | 1015.3 |
| 20260905070958 | 59 | 261 | 9.6 | 14.8 | 0.00 | 0.00 | 0.02 | 83 | 1015.1 |
| 20260905070458 | 59 | 243 | 9.6 | 11.3 | 0.00 | 0.00 | 0.02 | 83 | 1014.9 |
| 20260905065958 | 59 | 262 | 10.4 | 11.3 | 0.00 | 0.00 | 0.02 | 83 | 1015.1 |
| 20260905065457 | 59 | 252 | 5.2 | 15.6 | 0.00 | 0.00 | 0.02 | 83 | 1015.1 |
| 20260905064958 | 59 | 256 | 7.8 | 15.6 | 0.00 | 0.00 | 0.02 | 83 | 1015.1 |
| 20260905064457 | 59 | 279 | 6.1 | 9.6 | 0.00 | 0.00 | 0.02 | 84 | 1014.8 |
| 20260905063957 | 59 | 246 | 1.7 | 13.0 | 0.00 | 0.00 | 0.02 | 84 | 1014.8 |
| 20260905063458 | 59 | 267 | 8.7 | 13.0 | 0.00 | 0.00 | 0.02 | 85 | 1014.6 |
| 20260905062958 | 59 | 270 | 3.5 | 9.6 | 0.00 | 0.00 | 0.02 | 85 | 1014.5 |
| 20260905062457 | 59 | 270 | 7.0 | 14.8 | 0.00 | 0.00 | 0.02 | 85 | 1014.5 |
| 20260905061957 | 59 | 272 | 4.3 | 9.6 | 0.00 | 0.00 | 0.02 | 85 | 1014.5 |
| 20260905061457 | 59 | 262 | 4.3 | 15.6 | 0.00 | 0.00 | 0.02 | 85 | 1014.8 |
| 20260905060958 | 57 | 270 | 10.4 | 15.6 | 0.00 | 0.00 | 0.02 | 85 | 1014.8 |
| 20260905060458 | 59 | 250 | 7.0 | 13.0 | 0.00 | 0.00 | 0.02 | 85 | 1014.2 |
| 20260905055958 | 59 | 255 | 10.4 | 14.8 | 0.00 | 0.00 | 0.02 | 86 | 1014.4 |
| 20260905055457 | 59 | 253 | 13.0 | 17.4 | 0.00 | 0.00 | 0.02 | 86 | 1014.3 |
| 20260905054957 | 57 | 276 | 15.6 | 17.4 | 0.00 | 0.00 | 0.02 | 87 | 1014.2 |
| 20260905054458 | 57 | 236 | 7.0 | 15.6 | 0.00 | 0.00 | 0.02 | 87 | 1014.3 |
| 20260905053958 | 57 | 262 | 7.0 | 17.4 | 0.00 | 0.00 | 0.02 | 88 | 1014.1 |
| 20260905053458 | 57 | 211 | 13.0 | 20.9 | 0.00 | 0.00 | 0.02 | 89 | 1014.0 |
| 20260905052957 | 57 | 255 | 10.4 | 14.8 | 0.00 | 0.00 | 0.02 | 89 | 1014.3 |
| 20260905052458 | 57 | 271 | 7.0 | 13.0 | 0.00 | 0.00 | 0.02 | 89 | 1014.0 |
| 20260905051957 | 57 | 270 | 10.4 | 14.8 | 0.00 | 0.00 | 0.02 | 89 | 1014.1 |
| 20260905051458 | 59 | 261 | 8.7 | 11.3 | 0.00 | 0.00 | 0.02 | 89 | 1014.0 |
| 20260905050957 | 59 | 248 | 6.1 | 14.8 | 0.00 | 0.00 | 0.02 | 89 | 1013.9 |
| 20260905050458 | 59 | 269 | 3.5 | 7.8 | 0.07 | 0.00 | 0.02 | 89 | 1013.5 |
| 20260905045958 | 59 | 248 | 3.5 | 9.6 | 0.07 | 0.00 | 0.02 | 89 | 1013.3 |
| 20260905045457 | 59 | 248 | 2.6 | 9.6 | 0.00 | 0.00 | 0.01 | 88 | 1013.6 |
| 20260905044958 | 59 | 309 | 7.8 | 11.3 | 0.00 | 0.00 | 0.01 | 88 | 1013.6 |
| 20260905044457 | 59 | 231 | 4.3 | 11.3 | 0.00 | 0.00 | 0.01 | 88 | 1013.4 |
| 20260905043957 | 59 | 265 | 5.2 | 11.3 | 0.00 | 0.00 | 0.01 | 89 | 1013.4 |
| 20260905043458 | 59 | 261 | 7.0 | 11.3 | 0.00 | 0.00 | 0.01 | 89 | 1013.3 |
| 20260905042958 | 59 | 233 | 7.8 | 17.4 | 0.00 | 0.00 | 0.01 | 89 | 1013.2 |
| 20260905042457 | 59 | 282 | 7.0 | 13.0 | 0.00 | 0.00 | 0.01 | 89 | 1013.3 |
| 20260905041958 | 59 | 277 | 3.5 | 11.3 | 0.00 | 0.00 | 0.01 | 89 | 1013.3 |
| 20260905041458 | 59 | 264 | 8.7 | 13.0 | 0.00 | 0.00 | 0.01 | 89 | 1013.2 |
| 20260905040957 | 59 | 284 | 7.8 | 14.8 | 0.00 | 0.00 | 0.01 | 88 | 1013.2 |
| 20260905040458 | 59 | 252 | 6.1 | 11.3 | 0.00 | 0.00 | 0.01 | 88 | 1013.1 |
| 20260905035958 | 59 | 229 | 7.0 | 13.0 | 0.00 | 0.00 | 0.01 | 88 | 1013.0 |
| 20260905035458 | 59 | 238 | 7.8 | 13.0 | 0.00 | 0.00 | 0.01 | 88 | 1012.8 |
| 20260905034957 | 59 | 213 | 4.3 | 11.3 | 0.00 | 0.00 | 0.01 | 88 | 1012.7 |
| 20260905034457 | 59 | 234 | 10.4 | 13.0 | 0.00 | 0.00 | 0.01 | 89 | 1012.6 |
| 20260905033958 | 59 | 257 | 7.8 | 13.0 | 0.00 | 0.00 | 0.01 | 89 | 1012.6 |
| 20260905033458 | 59 | 248 | 4.3 | 11.3 | 0.00 | 0.00 | 0.01 | 89 | 1012.2 |
| 20260905032957 | 59 | 262 | 4.3 | 9.6 | 0.00 | 0.00 | 0.01 | 89 | 1012.2 |
| 20260905032458 | 59 | 274 | 3.5 | 13.0 | 0.00 | 0.00 | 0.01 | 89 | 1012.5 |
| 20260905031957 | 59 | 201 | 5.2 | 9.6 | 0.00 | 0.00 | 0.01 | 89 | 1012.0 |
| 20260905031457 | 59 | 280 | 5.2 | 9.6 | 0.00 | 0.00 | 0.01 | 89 | 1012.0 |
| 20260905030957 | 59 | 272 | 6.1 | 6.1 | 0.00 | 0.00 | 0.01 | 90 | 1011.9 |
| 20260905030457 | 59 | 254 | 5.2 | 7.8 | 0.00 | 0.00 | 0.01 | 90 | 1012.1 |
| 20260905025957 | 59 | 286 | 4.3 | 9.6 | 0.00 | 0.00 | 0.01 | 90 | 1012.0 |
| 20260905025458 | 59 | 257 | 3.5 | 14.8 | 0.00 | 0.00 | 0.01 | 90 | 1012.1 |
| 20260905024957 | 59 | 199 | 7.8 | 13.0 | 0.00 | 0.00 | 0.01 | 90 | 1012.0 |
| 20260905024457 | 59 | 249 | 7.8 | 14.8 | 0.00 | 0.00 | 0.01 | 90 | 1012.3 |
| 20260905023957 | 59 | 285 | 7.8 | 11.3 | 0.00 | 0.00 | 0.01 | 90 | 1012.1 |
| 20260905023457 | 59 | 256 | 3.5 | 4.3 | 0.00 | 0.00 | 0.01 | 90 | 1011.9 |
| 20260905022957 | 59 | 285 | 4.3 | 9.6 | 0.00 | 0.00 | 0.01 | 90 | 1012.2 |
| 20260905022457 | 59 | 292 | 8.7 | 11.3 | 0.00 | 0.00 | 0.01 | 90 | 1012.5 |
| 20260905021957 | 59 | 282 | 13.0 | 17.4 | 0.00 | 0.00 | 0.01 | 90 | 1012.3 |
| 20260905021457 | 59 | 251 | 5.2 | 14.8 | 0.00 | 0.00 | 0.01 | 90 | 1012.2 |
| 20260905020957 | 59 | 263 | 4.3 | 11.3 | 0.00 | 0.00 | 0.01 | 90 | 1012.3 |
| 20260905020457 | 59 | 188 | 8.7 | 11.3 | 0.00 | 0.00 | 0.01 | 90 | 1012.1 |
| 20260905015957 | 59 | 273 | 9.6 | 11.3 | 0.00 | 0.00 | 0.01 | 89 | 1012.3 |
| 20260905015457 | 59 | 259 | 7.8 | 11.3 | 0.00 | 0.00 | 0.01 | 89 | 1011.7 |
| 20260905014957 | 59 | 268 | 6.1 | 14.8 | 0.00 | 0.00 | 0.01 | 88 | 1011.8 |
| 20260905014457 | 59 | 250 | 6.1 | 15.6 | 0.00 | 0.00 | 0.01 | 89 | 1011.4 |
| 20260905013957 | 59 | 248 | 7.0 | 14.8 | 0.00 | 0.00 | 0.01 | 89 | 1011.4 |
| 20260905013457 | 59 | 232 | 8.7 | 19.1 | 0.00 | 0.00 | 0.01 | 90 | 1011.7 |
| 20260905012957 | 59 | 286 | 7.8 | 9.6 | 0.00 | 0.00 | 0.01 | 90 | 1011.9 |
| 20260905012457 | 59 | 234 | 4.3 | 11.3 | 0.00 | 0.00 | 0.01 | 89 | 1011.8 |
| 20260905011957 | 59 | 289 | 8.7 | 13.0 | 0.00 | 0.00 | 0.01 | 88 | 1011.8 |
| 20260905011457 | 61 | 239 | 7.0 | 15.6 | 0.05 | 0.00 | 0.01 | 86 | 1011.9 |
| 20260905010957 | 61 | 257 | 10.4 | 19.1 | 0.05 | 0.00 | 0.01 | 83 | 1012.0 |
| 20260905010457 | 61 | 291 | 7.8 | 14.8 | 0.00 | 0.00 | 0.00 | 81 | 1012.0 |
| 20260905005957 | 63 | 307 | 7.8 | 14.8 | 0.00 | 0.00 | 0.00 | 79 | 1011.6 |
| 20260905005457 | 63 | 281 | 12.2 | 20.9 | 0.00 | 0.00 | 0.00 | 76 | 1011.9 |
| 20260905004957 | 63 | 241 | 13.9 | 20.9 | 0.00 | 0.00 | 0.00 | 74 | 1012.0 |
| 20260905004457 | 63 | 272 | 11.3 | 19.1 | 0.00 | 0.00 | 0.00 | 73 | 1011.6 |
| 20260905003957 | 63 | 266 | 8.7 | 26.1 | 0.00 | 0.00 | 0.00 | 72 | 1011.1 |
| 20260905003457 | 64 | 296 | 7.0 | 14.8 | 0.00 | 0.00 | 0.00 | 72 | 1011.2 |
| 20260905002957 | 64 | 291 | 9.6 | 14.8 | 0.00 | 0.00 | 0.00 | 71 | 1011.5 |
| 20260905002457 | 64 | 301 | 13.0 | 17.4 | 0.00 | 0.00 | 0.00 | 70 | 1011.3 |
| 20260905001957 | 64 | 270 | 14.8 | 22.6 | 0.00 | 0.00 | 0.00 | 70 | 1011.6 |
| 20260905001457 | 64 | 286 | 13.9 | 30.4 | 0.00 | 0.00 | 0.00 | 69 | 1011.4 |
| 20260905000957 | 64 | 286 | 14.8 | 24.3 | 0.00 | 0.00 | 0.00 | 67 | 1011.1 |
| 20260905000457 | 64 | 289 | 13.0 | 24.3 | 0.00 | 0.00 | 0.00 | 67 | 1011.1 |
| 20260904235957 | 64 | 290 | 9.6 | 13.0 | 0.00 | 0.00 | 0.00 | 67 | 1011.1 |
| 20260904235457 | 64 | 280 | 14.8 | 22.6 | 0.00 | 0.00 | 0.00 | 66 | 1011.3 |
| 20260904234957 | 64 | 307 | 10.4 | 20.9 | 0.00 | 0.00 | 0.00 | 65 | 1010.9 |
| 20260904234457 | 66 | 303 | 10.4 | 19.1 | 0.00 | 0.00 | 0.00 | 66 | 1010.9 |
| 20260904233957 | 66 | 268 | 15.6 | 26.1 | 0.00 | 0.00 | 0.00 | 67 | 1010.7 |
| 20260904233457 | 66 | 264 | 7.0 | 14.8 | 0.00 | 0.00 | 0.00 | 66 | 1010.5 |
| 20260904232957 | 66 | 277 | 9.6 | 14.8 | 0.00 | 0.00 | 0.00 | 66 | 1010.5 |
| 20260904232457 | 66 | 244 | 10.4 | 22.6 | 0.00 | 0.00 | 0.00 | 66 | 1010.4 |
| 20260904231957 | 66 | 296 | 8.7 | 13.0 | 0.00 | 0.00 | 0.00 | 66 | 1010.3 |
| 20260904231457 | 66 | 283 | 8.7 | 17.4 | 0.00 | 0.00 | 0.00 | 66 | 1010.4 |
| 20260904230957 | 66 | 271 | 7.8 | 15.6 | 0.00 | 0.00 | 0.00 | 66 | 1010.5 |
| 20260904230457 | 66 | 273 | 7.8 | 20.9 | 0.00 | 0.00 | 0.00 | 66 | 1010.4 |
| 20260904225957 | 66 | 286 | 18.2 | 30.4 | 0.00 | 0.00 | 0.00 | 65 | 1010.2 |
| 20260904225457 | 66 | 275 | 11.3 | 17.4 | 0.00 | 0.00 | 0.00 | 65 | 1010.2 |
| 20260904224957 | 68 | 276 | 13.0 | 24.3 | 0.00 | 0.00 | 0.00 | 66 | 1010.1 |
| 20260904224457 | 68 | 279 | 11.3 | 19.1 | 0.00 | 0.00 | 0.00 | 65 | 1010.1 |
| 20260904223957 | 68 | 280 | 11.3 | 24.3 | 0.00 | 0.00 | 0.00 | 66 | 1009.7 |
| 20260904223457 | 68 | 291 | 22.6 | 28.7 | 0.00 | 0.00 | 0.00 | 67 | 1009.5 |
| 20260904222957 | 70 | 277 | 10.4 | 13.0 | 0.00 | 0.00 | 0.00 | 68 | 1009.5 |
| 20260904221957 | 70 | 299 | 8.7 | 20.9 | 0.00 | 0.00 | 0.00 | 66 | 1009.4 |
| 20260904221457 | 72 | 330 | 11.3 | 17.4 | 0.00 | 0.00 | 0.00 | 67 | 1009.2 |
| 20260904220957 | 72 | 334 | 14.8 | 20.9 | 0.00 | 0.00 | 0.00 | 66 | 1009.1 |
| 20260904220457 | 72 | 328 | 12.2 | 19.1 | 0.00 | 0.00 | 0.00 | 66 | 1008.9 |
| 20260904215957 | 72 | 334 | 8.7 | 14.8 | 0.00 | 0.00 | 0.00 | 65 | 1008.8 |
| 20260904215457 | 73 | 283 | 18.2 | 20.9 | 0.00 | 0.00 | 0.00 | 63 | 1008.8 |
| 20260904214957 | 73 | 301 | 15.6 | 20.9 | 0.00 | 0.00 | 0.00 | 60 | 1008.8 |
| 20260904214457 | 73 | 268 | 17.4 | 33.9 | 0.00 | 0.00 | 0.00 | 59 | 1008.6 |
| 20260904213957 | 73 | 274 | 11.3 | 17.4 | 0.00 | 0.00 | 0.00 | 61 | 1008.3 |
| 20260904213457 | 73 | 222 | 7.0 | 13.0 | 0.00 | 0.00 | 0.00 | 61 | 1007.5 |
| 20260904212957 | 73 | 240 | 10.4 | 14.8 | 0.00 | 0.00 | 0.00 | 61 | 1007.5 |
| 20260904212457 | 72 | 264 | 7.0 | 9.6 | 0.00 | 0.00 | 0.00 | 62 | 1007.3 |
| 20260904211957 | 72 | 226 | 4.3 | 6.1 | 0.00 | 0.00 | 0.00 | 63 | 1007.3 |
| 20260904211457 | 72 | 225 | 10.4 | 14.8 | 0.00 | 0.00 | 0.00 | 63 | 1007.5 |
| 20260904210957 | 72 | 202 | 6.1 | 13.0 | 0.00 | 0.00 | 0.00 | 63 | 1007.4 |
| 20260904210457 | 72 | 231 | 0.9 | 7.8 | 0.00 | 0.00 | 0.00 | 64 | 1007.9 |
| 20260904205957 | 72 | 204 | 4.3 | 6.1 | 0.00 | 0.00 | 0.00 | 65 | 1007.9 |
| 20260904205457 | 70 | 204 | 3.5 | 7.8 | 0.00 | 0.00 | 0.00 | 66 | 1007.8 |
| 20260904204957 | 70 | 216 | 3.5 | 4.3 | 0.00 | 0.00 | 0.00 | 67 | 1007.6 |
| 20260904204458 | 70 | 220 | 5.2 | 9.6 | 0.00 | 0.00 | 0.00 | 67 | 1007.6 |
| 20260904203957 | 70 | 242 | 2.6 | 11.3 | 0.00 | 0.00 | 0.00 | 67 | 1007.7 |
| 20260904203457 | 70 | 277 | 7.0 | 9.6 | 0.00 | 0.00 | 0.00 | 68 | 1007.8 |
| 20260904202957 | 70 | 272 | 7.0 | 9.6 | 0.00 | 0.00 | 0.00 | 68 | 1007.7 |
| 20260904202457 | 70 | 189 | 2.6 | 9.6 | 0.00 | 0.00 | 0.00 | 69 | 1008.1 |
| 20260904201957 | 70 | 207 | 3.5 | 9.6 | 0.00 | 0.00 | 0.00 | 69 | 1007.9 |
| 20260904201457 | 70 | 212 | 3.5 | 13.0 | 0.00 | 0.00 | 0.00 | 69 | 1008.1 |
| 20260904200957 | 70 | 215 | 4.3 | 7.8 | 0.00 | 0.00 | 0.00 | 70 | 1008.1 |
| 20260904200457 | 70 | 142 | 3.5 | 7.8 | 0.00 | 0.00 | 0.00 | 70 | 1008.2 |
| 20260904195957 | 70 | 223 | 5.2 | 11.3 | 0.00 | 0.00 | 0.00 | 70 | 1008.1 |